Location: Endfield
(51.6667°N, 0.0667°W)
Time: 13:29:45
(UTC+00:00)

Cosmos 1048 Rocket - Pass Details

Date: 19 May 2024
Orbit: 742 x 788 km, 74.0° (Epoch: 16 June)

Event Time Altitude Azimuth Distance (km) Brightness Sun altitude
Exits shadow 21:58:59 13° 191° (S) 2,092 5.8 -13.8°
Maximum altitude 22:03:37 67° 110° (ESE) 813 3.9 -14.2°
Drops below altitude 10° 22:08:42 10° 29° (NNE) 2,268 6.9 -14.5°
Sets 22:11:04 0° 27° (NNE) 3,194 7.8 -14.7°
